Location: Carnières
(50.1682°N, 3.3474°E)
Time: 10:33:43
(UTC+00:00)

ATLAS 2AS CENTAUR R/B - Pass Details

Date: 23 May 2024
Orbit: 1017 x 1194 km, 63.7° (Epoch: 14 June)

Event Time Altitude Azimuth Distance (km) Brightness Sun altitude
Rises 01:29:50 0° 314° (NW) 3,933 5.9 -15.4°
Reaches altitude 10° 01:32:40 10° 320° (NW) 2,946 5.3 -15.2°
Maximum altitude 01:39:24 50° 35° (NE) 1,326 3.7 -14.7°
Drops below altitude 10° 01:45:52 10° 110° (ESE) 2,831 5.0 -14.2°
Sets 01:48:33 0° 116° (ESE) 3,767 5.6 -14.0°
